Погода в Ики-Бухусе

Россия / Республика Калмыкия     48°02′33″N   45°13′07″E
темп.,
°C
ветер,
м/с
пор.,
м/с
влажн.,
%
обл.,
%
осадки,
мм/ч
давл.,
гПа
погр.,
м
10 мая, пн
пн1000:00+9зсз91292100 5.3 1012874
03:00+8зсз81290100 9.3 1013694
06:00+7зсз81288100 1.5 1013684
09:00+8з81181100 1.5 1013789
12:00+10з8975100 0.2 10131073
15:00+9зюз7876100 0.2 10141023
18:00+8зюз5879100 0.1 1014746
21:00+8ююз378097 0.1 1015438
11 мая, вт
вт1100:00+7ююв5884100 0.1 1016459
03:00+8ююв61088100 0.3 1016939
06:00+8ю71183100 0.1 1018682
09:00+12ю796686 0.1 10201076
12:00+16ююв5748100 0.0 10222033
15:00+16юв4548100 0.0 10221090
18:00+16в3554100 0.0 1022143
21:00+12св5106290 0.0 1021169
12 мая, ср
ср1200:00+11св51267100 0.0 1020195
03:00+10всв511703 0.0 1019178
06:00+11в367310 0.0 1020158
09:00+16всв225196 0.0 1019680
12:00+20всв334327 0.0 10191378
15:00+22в344311 0.0 10181538
18:00+22св225316 0.0 101884
21:00+19ссз4559100 0.0 101792
13 мая, чт
чт1300:00+18ссз486593 0.0 1016167
03:00+16с347971 0.0 101699
06:00+16в23801 0.0 1017116
09:00+22юв44615 0.0 1017706
12:00+25вюв44490 0.0 10171432
15:00+27юв45403 0.0 10171802
18:00+26в36495 0.0 1016146
21:00+22вюв485510 0.0 1017117
14 мая, пт
пт1400:00+20юв5115885 0.0 1017183
03:00+18вюв455998 0.0 101759
06:00+18в47540 0.0 1018150
09:00+24юв68395 0.0 1018528
12:00+30юв7103075 0.0 10171594
15:00+31юв7102897 0.0 10162622
18:00+27ююв611320 0.0 1016273
21:00+21вюв511410 0.0 1017190